This is the latest recevied weather packets stored in our database for station/object KO4APQ. If no packets are shown the sender has not sent any weather packets the latest 10 day(s).
| Time | Temp. | Humidity | Pressure | Rain* | Wind** | Luminosity | Snow |
|---|---|---|---|---|---|---|---|
| 1778123390 | 17.78° C | 96% | 1013.3 hPa | 0 mm | - | 0 W/m² | - |
| 1778123087 | 17.78° C | 96% | 1013.2 hPa | 0 mm | - | 0 W/m² | - |
| 1778122784 | 17.78° C | 96% | 1013.3 hPa | 0 mm | - | 0 W/m² | - |
| 1778122481 | 17.78° C | 96% | 1013.5 hPa | 0 mm | - | 0 W/m² | - |
| 1778122179 | 17.78° C | 96% | 1013.2 hPa | 0 mm | - | 0 W/m² | - |
| 1778121877 | 17.78° C | 96% | 1013.2 hPa | 0 mm | - | 0 W/m² | - |
| 1778121572 | 17.78° C | 96% | 1013.4 hPa | 0 mm | - | 0 W/m² | - |
| 1778121269 | 17.78° C | 96% | 1013.6 hPa | 0 mm | - | 0 W/m² | - |
| 1778120966 | 17.78° C | 96% | 1013.4 hPa | 0 mm | - | 0 W/m² | - |
| 1778120663 | 17.78° C | 96% | 1013.7 hPa | 0 mm | - | 0 W/m² | - |
| 1778120359 | 17.78° C | 96% | 1013.8 hPa | 0 mm | - | 0 W/m² | - |
| 1778120054 | 17.78° C | 96% | 1013.4 hPa | 0 mm | - | 0 W/m² | - |
| 1778119752 | 17.78° C | 95% | 1013.4 hPa | 0 mm | - | 0 W/m² | - |
| 1778119448 | 17.78° C | 95% | 1013.6 hPa | 0 mm | - | 0 W/m² | - |
| 1778119146 | 17.78° C | 95% | 1013.5 hPa | 1.78 mm | - | 0 W/m² | - |
| 1778118844 | 17.78° C | 95% | 1014.2 hPa | 4.83 mm | - | 0 W/m² | - |
| 1778118541 | 17.78° C | 95% | 1014.3 hPa | 4.32 mm | - | 0 W/m² | - |
| 1778118236 | 17.78° C | 95% | 1014.2 hPa | 3.05 mm | - | 0 W/m² | - |
| 1778117933 | 17.78° C | 95% | 1014 hPa | 6.1 mm | - | 0 W/m² | - |
| 1778117630 | 17.78° C | 95% | 1014.2 hPa | 7.11 mm | - | 0 W/m² | - |
| 1778117328 | 17.78° C | 95% | 1013.7 hPa | 10.67 mm | - | 0 W/m² | - |
| 1778117024 | 17.78° C | 95% | 1014.4 hPa | 7.87 mm | - | 0 W/m² | - |
| 1778116721 | 17.78° C | 95% | 1014.6 hPa | 0 mm | - | 0 W/m² | - |
| 1778116418 | 17.78° C | 95% | 1014.4 hPa | 1.78 mm | - | 0 W/m² | - |
| 1778116118 | 17.78° C | 94% | 1014.7 hPa | 3.05 mm | - | 0 W/m² | - |
* Rain latest hour (hover to see other rain measurements)
** Current wind speed in m/s (hover to see current wind gust speed)